KC3ZFY-W Weather Reports


Display with metric or nautical units.
time (UTC)temp
F
wind
direction
speed
MPH
gust
MPH
rain 1hr
in
rain 24hr
in
rain mn
in
humidity
%
barometer
mb
20260510190507 85 150 2.0 7.0 0.00 0.00 0.00 32 1012.2
20260510190013 85 267 3.0 7.0 0.00 0.00 0.00 32 1012.3
20260510185503 85 348 0.0 4.0 0.00 0.00 0.00 33 1012.2
20260510185006 85 73 2.0 6.0 0.00 0.00 0.00 34 1012.3
20260510184509 85 190 3.0 6.0 0.00 0.00 0.00 34 1012.3
20260510184007 85 178 0.0 7.0 0.00 0.00 0.00 35 1012.4
20260510183508 85 272 2.0 7.0 0.00 0.00 0.00 34 1012.5
20260510183010 85 132 2.0 7.0 0.00 0.00 0.00 34 1012.4
20260510182508 85 264 2.0 6.0 0.00 0.00 0.00 34 1012.5
20260510182008 85 302 1.0 4.0 0.00 0.01 0.00 35 1012.5
20260510181512 86 324 1.0 6.0 0.00 0.01 0.00 34 1012.5
20260510181006 86 135 1.0 6.0 0.00 0.01 0.00 33 1012.7
20260510180503 86 264 1.0 5.0 0.00 0.01 0.00 35 1012.8
20260510180012 85 318 2.0 4.0 0.00 0.01 0.00 34 1012.8
20260510175504 84 246 1.0 8.0 0.00 0.01 0.00 37 1012.8
20260510175006 85 258 3.0 8.0 0.00 0.01 0.00 37 1012.8
20260510174513 85 225 1.0 7.0 0.00 0.01 0.00 35 1012.8
20260510174005 85 214 2.0 8.0 0.00 0.01 0.00 36 1012.9
20260510173508 84 195 2.0 8.0 0.00 0.01 0.00 37 1012.9
20260510173012 85 311 3.0 10.0 0.00 0.01 0.00 37 1012.9
20260510172507 84 244 2.0 10.0 0.00 0.01 0.00 38 1012.9
20260510172005 84 219 1.0 3.0 0.00 0.01 0.00 39 1012.9
20260510171514 82 246 1.0 6.0 0.00 0.01 0.00 39 1012.9
20260510171003 82 131 3.0 8.0 0.00 0.01 0.00 38 1012.9
20260510170507 82 227 2.0 8.0 0.00 0.01 0.00 39 1013.0
20260510170017 82 34 2.0 8.0 0.00 0.01 0.00 39 1013.0
20260510165504 82 263 3.0 9.0 0.00 0.01 0.00 40 1013.0
20260510165005 82 165 3.0 9.0 0.00 0.01 0.00 40 1013.1
20260510164513 82 245 2.0 8.0 0.00 0.01 0.00 42 1013.1
20260510164009 81 34 2.0 9.0 0.00 0.01 0.00 39 1013.3
20260510163505 82 316 2.0 9.0 0.00 0.01 0.00 39 1013.3
20260510163014 82 26 1.0 7.0 0.00 0.01 0.00 41 1013.3
20260510162504 81 254 2.0 9.0 0.00 0.01 0.00 41 1013.3
20260510162008 80 243 1.0 9.0 0.00 0.01 0.00 43 1013.4
20260510161514 80 9 2.0 7.0 0.00 0.01 0.00 43 1013.3
20260510161006 80 258 3.0 8.0 0.00 0.01 0.00 44 1013.5
20260510160505 80 44 3.0 9.0 0.00 0.01 0.00 42 1013.3
20260510160018 80 24 2.0 9.0 0.00 0.01 0.00 44 1013.5
20260510155503 79 128 1.0 6.0 0.00 0.01 0.00 45 1013.4
20260510155007 79 275 2.0 6.0 0.00 0.01 0.00 44 1013.4
20260510154512 78 30 3.0 7.0 0.00 0.01 0.00 44 1013.5
20260510154008 78 36 3.0 7.0 0.00 0.01 0.00 45 1013.5
20260510153507 78 271 3.0 9.0 0.00 0.01 0.00 46 1013.5
20260510153019 79 277 4.0 9.0 0.00 0.01 0.00 43 1013.5
20260510152507 78 22 3.0 9.0 0.00 0.01 0.00 43 1013.5
20260510152007 79 338 2.0 9.0 0.00 0.01 0.00 44 1013.5
20260510151518 79 194 3.0 9.0 0.00 0.01 0.00 44 1013.5
20260510151004 78 277 2.0 6.0 0.00 0.01 0.00 43 1013.4
20260510150505 78 297 2.0 6.0 0.00 0.01 0.00 44 1013.3
20260510150006 77 286 1.0 8.0 0.00 0.01 0.00 45 1013.3
20260510145506 77 286 2.0 9.0 0.00 0.01 0.00 45 1013.2
20260510145002 76 308 3.0 9.0 0.00 0.01 0.00 46 1013.2
20260510144508 76 313 3.0 8.0 0.00 0.01 0.00 47 1013.0
20260510144004 76 290 1.0 6.0 0.00 0.01 0.00 50 1013.1
20260510143504 76 182 3.0 6.0 0.00 0.01 0.00 49 1013.0
20260510143015 76 271 2.0 4.0 0.00 0.01 0.00 52 1012.9
20260510142503 75 24 1.0 4.0 0.00 0.01 0.00 53 1012.8
20260510142010 75 285 1.0 3.0 0.00 0.01 0.00 55 1012.9
20260510141517 74 118 1.0 5.0 0.00 0.01 0.00 57 1012.9
20260510141005 73 13 0.0 5.0 0.00 0.01 0.00 57 1013.0
20260510140505 73 296 1.0 3.0 0.00 0.01 0.00 58 1013.0
20260510140018 72 250 1.0 3.0 0.00 0.01 0.00 61 1013.0
20260510135506 72 303 1.0 4.0 0.00 0.01 0.00 60 1013.1
20260510135004 71 330 2.0 4.0 0.00 0.01 0.00 63 1013.0
20260510134508 70 253 0.0 3.0 0.00 0.01 0.00 64 1013.0
20260510134003 70 303 0.0 3.0 0.00 0.01 0.00 67 1013.1
20260510133502 69 102 2.0 3.0 0.00 0.01 0.00 67 1013.0
20260510133020 68 279 0.0 2.0 0.00 0.01 0.00 69 1012.9
20260510132508 68 252 0.0 2.0 0.00 0.01 0.00 72 1013.0
20260510132004 67 199 0.0 2.0 0.00 0.01 0.00 74 1013.1
20260510131520 65 51 0.0 2.0 0.00 0.01 0.00 76 1013.1
20260510131007 64 289 0.0 3.0 0.00 0.01 0.00 79 1013.2
20260510130506 64 277 2.0 3.0 0.00 0.01 0.00 81 1013.3
20260510130022 63 281 0.0 2.0 0.00 0.01 0.00 84 1013.4
20260510125506 62 268 0.0 0.0 0.00 0.01 0.00 87 1013.4
20260510125007 62 13 0.0 2.0 0.00 0.01 0.00 89 1013.4
20260510124526 61 276 0.0 2.0 0.00 0.01 0.00 91 1013.4
20260510124004 60 338 0.0 2.0 0.00 0.01 0.00 92 1013.4
20260510123504 59 204 0.0 0.0 0.00 0.01 0.00 92 1013.5
20260510123011 58 215 0.0 0.0 0.00 0.01 0.00 93 1013.5
20260510122505 58 323 0.0 1.0 0.00 0.01 0.00 93 1013.4
20260510122005 57 318 0.0 1.0 0.00 0.01 0.00 93 1013.4
20260510121516 56 331 0.0 2.0 0.00 0.01 0.00 93 1013.4
20260510121009 56 302 0.0 2.0 0.00 0.01 0.00 93 1013.3
20260510120508 55 10 0.0 1.0 0.00 0.01 0.00 93 1013.3
20260510120034 54 21 0.0 0.0 0.00 0.01 0.00 92 1013.2
20260510115511 54 21 0.0 2.0 0.00 0.01 0.00 92 1013.3
20260510115007 53 18 1.0 2.0 0.00 0.01 0.00 92 1013.3
20260510114522 52 29 0.0 2.0 0.00 0.01 0.00 92 1013.2
20260510114011 52 28 0.0 2.0 0.00 0.01 0.00 92 1013.1
20260510113506 50 360 0.0 0.0 0.00 0.01 0.00 92 1013.1
20260510113020 50 360 0.0 0.0 0.00 0.01 0.00 92 1012.9
20260510112508 49 360 0.0 0.0 0.00 0.01 0.00 92 1012.9
20260510112004 49 360 0.0 0.0 0.00 0.01 0.00 91 1012.7
20260510111512 49 360 0.0 2.0 0.00 0.01 0.00 91 1012.7
20260510111003 48 360 0.0 1.0 0.00 0.01 0.00 91 1012.6
20260510110508 48 349 0.0 0.0 0.00 0.01 0.00 91 1012.2
20260510110024 48 349 0.0 0.0 0.00 0.01 0.00 91 1012.1
20260510105509 48 349 0.0 0.0 0.00 0.01 0.00 90 1012.1
20260510105008 48 349 0.0 0.0 0.00 0.01 0.00 90 1012.0
20260510104523 47 349 0.0 0.0 0.00 0.01 0.00 90 1012.0
20260510104008 47 349 0.0 0.0 0.00 0.01 0.00 90 1011.9
20260510103508 47 349 0.0 0.0 0.00 0.01 0.00 90 1011.8
20260510103023 47 349 0.0 0.0 0.00 0.01 0.00 90 1011.8
20260510102509 47 349 0.0 0.0 0.00 0.01 0.00 90 1011.8
20260510102009 47 349 0.0 0.0 0.00 0.01 0.00 90 1011.7
20260510101514 47 349 0.0 0.0 0.00 0.01 0.00 90 1011.6
20260510101005 48 349 0.0 0.0 0.00 0.01 0.00 90 1011.6
20260510100504 48 349 0.0 0.0 0.00 0.01 0.00 90 1011.6
20260510100018 48 349 0.0 0.0 0.00 0.01 0.00 89 1011.6
20260510095506 48 349 0.0 0.0 0.00 0.01 0.00 89 1011.6
20260510095007 48 349 0.0 0.0 0.00 0.01 0.00 89 1011.7
20260510094529 48 349 0.0 0.0 0.00 0.01 0.00 89 1011.6
20260510094007 48 349 0.0 0.0 0.00 0.01 0.00 89 1011.5
20260510093508 48 349 0.0 0.0 0.00 0.01 0.00 89 1011.5
20260510093024 48 349 0.0 0.0 0.00 0.01 0.00 89 1011.5
20260510092510 48 349 0.0 0.0 0.00 0.01 0.00 89 1011.6
20260510092013 49 349 0.0 0.0 0.00 0.01 0.00 89 1011.6
20260510091529 49 349 0.0 0.0 0.00 0.01 0.00 89 1011.5
20260510091007 49 349 0.0 0.0 0.00 0.01 0.00 89 1011.5
20260510090507 49 349 0.0 0.0 0.00 0.01 0.00 89 1011.5
20260510090016 49 349 0.0 0.0 0.00 0.01 0.00 89 1011.4
20260510085506 49 349 0.0 0.0 0.00 0.01 0.00 89 1011.4
20260510085005 49 349 0.0 0.0 0.00 0.01 0.00 89 1011.2
20260510084522 49 349 0.0 0.0 0.00 0.01 0.00 89 1011.2
20260510084006 49 349 0.0 0.0 0.00 0.01 0.00 89 1011.2
20260510083509 49 349 0.0 0.0 0.00 0.01 0.00 89 1011.2
20260510083023 49 349 0.0 0.0 0.00 0.01 0.00 89 1011.1
20260510082508 49 349 0.0 0.0 0.00 0.01 0.00 89 1010.9
20260510082011 50 349 0.0 0.0 0.00 0.01 0.00 89 1010.9
20260510081527 50 349 0.0 0.0 0.00 0.01 0.00 89 1010.8
20260510081009 50 349 0.0 0.0 0.00 0.01 0.00 89 1010.7
20260510080509 50 349 0.0 0.0 0.00 0.01 0.00 89 1010.6
20260510080029 50 349 0.0 0.0 0.00 0.01 0.00 89 1010.6
20260510075512 50 349 0.0 0.0 0.00 0.01 0.00 89 1010.5
20260510075007 50 349 0.0 0.0 0.00 0.01 0.00 89 1010.5
20260510074520 50 349 0.0 0.0 0.00 0.01 0.00 89 1010.5
20260510074010 51 349 0.0 0.0 0.00 0.01 0.00 89 1010.4
20260510073507 51 349 0.0 0.0 0.00 0.01 0.00 88 1010.4
20260510073021 51 349 0.0 0.0 0.00 0.01 0.00 88 1010.4
20260510072509 51 332 0.0 0.0 0.00 0.01 0.00 88 1010.4
20260510072008 51 332 0.0 0.0 0.00 0.01 0.00 88 1010.4
20260510071525 51 332 0.0 0.0 0.00 0.01 0.00 88 1010.3
20260510071008 51 332 0.0 0.0 0.00 0.01 0.00 88 1010.2
20260510070508 51 332 0.0 0.0 0.00 0.01 0.00 88 1010.2
20260510070025 52 332 0.0 0.0 0.00 0.01 0.00 88 1010.2
20260510065511 52 332 0.0 0.0 0.00 0.01 0.00 88 1010.2
20260510065010 52 332 0.0 0.0 0.00 0.01 0.00 88 1010.2
20260510064530 52 332 0.0 0.0 0.00 0.01 0.00 88 1010.2
20260510064012 52 332 0.0 0.0 0.00 0.01 0.00 88 1010.3
20260510063507 52 332 0.0 0.0 0.00 0.01 0.00 88 1010.2
20260510063019 52 332 0.0 0.0 0.00 0.01 0.00 87 1010.1
20260510062508 52 332 0.0 0.0 0.00 0.01 0.00 87 1010.1
20260510062008 52 332 0.0 0.0 0.00 0.01 0.00 87 1010.1
20260510061529 53 332 0.0 0.0 0.00 0.01 0.00 87 1010.1
20260510061011 53 332 0.0 0.0 0.00 0.01 0.00 86 1010.1
20260510060504 53 332 0.0 0.0 0.00 0.01 0.00 86 1010.0
20260510060018 53 332 0.0 0.0 0.00 0.01 0.00 86 1010.0
20260510055504 53 332 0.0 0.0 0.00 0.01 0.00 86 1010.0
20260510055004 53 332 0.0 0.0 0.00 0.01 0.00 86 1010.0
20260510054516 53 332 0.0 0.0 0.00 0.01 0.00 86 1010.0
20260510054008 53 332 0.0 0.0 0.00 0.01 0.00 86 1010.0
20260510053503 54 332 0.0 0.0 0.00 0.01 0.00 86 1010.0
20260510053019 54 332 0.0 0.0 0.00 0.01 0.00 86 1010.1
20260510052508 54 332 0.0 0.0 0.00 0.01 0.00 86 1010.2
20260510052009 54 332 0.0 0.0 0.00 0.01 0.00 85 1010.2
20260510051521 54 332 0.0 0.0 0.00 0.01 0.00 85 1010.2
20260510051011 54 332 0.0 0.0 0.00 0.01 0.00 85 1010.1
20260510050503 54 332 0.0 0.0 0.00 0.01 0.00 85 1010.2
20260510050009 55 332 0.0 0.0 0.00 0.01 0.00 85 1010.2
20260510045504 55 332 0.0 0.0 0.00 0.01 0.00 85 1010.2
20260510045004 55 332 0.0 0.0 0.00 0.01 0.00 84 1010.2
20260510044510 55 332 0.0 0.0 0.00 0.01 0.00 84 1010.2
20260510044003 55 332 0.0 0.0 0.00 0.01 0.00 84 1010.3
20260510043506 55 332 0.0 0.0 0.00 0.01 0.00 84 1010.2
20260510043016 56 332 0.0 0.0 0.00 0.01 0.00 83 1010.2
20260510042503 56 332 0.0 0.0 0.00 0.01 0.00 83 1010.1
20260510042006 56 332 0.0 0.0 0.00 0.01 0.00 83 1010.2
20260510041528 56 332 0.0 0.0 0.00 0.01 0.00 83 1010.2
20260510041008 56 332 0.0 0.0 0.00 0.01 0.00 83 1010.3
20260510040507 57 332 0.0 0.0 0.00 0.01 0.00 82 1010.2
20260510040025 57 332 0.0 0.0 0.00 0.01 0.00 82 1010.1
20260510035510 57 332 0.0 0.0 0.00 0.01 0.01 81 1010.1
20260510035003 57 332 0.0 0.0 0.00 0.01 0.01 81 1010.1
20260510034508 58 332 0.0 0.0 0.00 0.01 0.01 80 1010.1
20260510034003 58 332 0.0 0.0 0.00 0.01 0.01 80 1010.1
20260510033502 58 332 0.0 0.0 0.00 0.01 0.01 80 1010.0
20260510033013 58 332 0.0 0.0 0.00 0.01 0.01 80 1009.9
20260510032506 59 332 0.0 0.0 0.00 0.01 0.01 80 1009.9
20260510032007 59 332 0.0 0.0 0.00 0.01 0.01 79 1009.9
20260510031518 59 332 0.0 0.0 0.00 0.01 0.01 78 1009.9
20260510031007 59 332 0.0 0.0 0.00 0.01 0.01 77 1009.9
20260510030507 60 332 0.0 0.0 0.00 0.01 0.01 77 1009.8
20260510030023 60 332 0.0 0.0 0.00 0.01 0.01 77 1009.8
20260510025507 60 332 0.0 0.0 0.00 0.01 0.01 77 1009.8
20260510025012 60 332 0.0 0.0 0.00 0.01 0.01 77 1009.7
20260510024524 60 332 0.0 0.0 0.00 0.01 0.01 77 1009.7
20260510024003 61 232 0.0 0.0 0.00 0.01 0.01 77 1009.7
20260510023503 61 232 0.0 0.0 0.00 0.01 0.01 76 1009.7
20260510023027 61 232 0.0 0.0 0.00 0.01 0.01 76 1009.7
20260510022504 61 232 0.0 0.0 0.00 0.01 0.01 76 1009.7
20260510022008 61 232 0.0 0.0 0.00 0.01 0.01 75 1009.7
20260510021518 61 232 0.0 0.0 0.00 0.01 0.01 75 1009.6
20260510021003 62 232 0.0 0.0 0.00 0.01 0.01 74 1009.6
20260510020506 62 232 0.0 0.0 0.00 0.01 0.01 74 1009.6
20260510020024 62 232 0.0 0.0 0.00 0.01 0.01 73 1009.5
20260510015508 62 232 0.0 0.0 0.00 0.01 0.01 72 1009.5
20260510015007 63 232 0.0 0.0 0.00 0.01 0.01 71 1009.4
20260510014527 63 232 0.0 0.0 0.00 0.01 0.01 71 1009.4
20260510014007 63 232 0.0 0.0 0.00 0.01 0.01 71 1009.3
20260510013510 63 232 0.0 0.0 0.00 0.01 0.01 71 1009.3
20260510013027 64 232 0.0 0.0 0.00 0.01 0.01 70 1009.3
20260510012505 64 232 0.0 0.0 0.00 0.01 0.01 71 1009.1
20260510012004 64 232 0.0 1.0 0.00 0.01 0.01 71 1009.1
20260510011522 64 232 0.0 2.0 0.00 0.01 0.01 70 1009.0
20260510011008 64 232 0.0 2.0 0.00 0.01 0.01 69 1009.0
20260510010504 65 188 0.0 3.0 0.00 0.01 0.01 68 1009.0
20260510010025 65 177 0.0 3.0 0.00 0.01 0.01 68 1008.9
20260510005507 65 161 0.0 3.0 0.00 0.01 0.01 67 1008.9
20260510005008 65 172 0.0 3.0 0.00 0.01 0.01 67 1008.8
20260510004524 66 205 0.0 2.0 0.00 0.01 0.01 66 1008.8
20260510004009 66 147 0.0 2.0 0.00 0.01 0.01 65 1008.7
20260510003507 66 146 0.0 2.0 0.00 0.01 0.01 65 1008.8
20260510003028 67 126 0.0 3.0 0.00 0.01 0.01 65 1008.7
20260510002510 67 122 1.0 3.0 0.00 0.01 0.01 64 1008.6
20260510002010 67 151 0.0 2.0 0.00 0.01 0.01 64 1008.7
20260510001515 67 144 0.0 5.0 0.00 0.01 0.01 63 1008.6
20260510001004 68 127 0.0 5.0 0.00 0.01 0.01 63 1008.6
20260510000505 68 140 0.0 2.0 0.00 0.01 0.01 62 1008.6
20260510000018 68 121 0.0 5.0 0.00 0.01 0.01 62 1008.6
20260509235504 68 178 1.0 5.0 0.00 0.01 0.01 61 1008.5
20260509235008 69 155 1.0 5.0 0.00 0.01 0.01 61 1008.5
20260509234520 69 152 2.0 5.0 0.00 0.01 0.01 60 1008.5
20260509234011 69 136 1.0 6.0 0.00 0.01 0.01 60 1008.5
20260509233510 69 167 2.0 6.0 0.00 0.01 0.01 60 1008.4
20260509233022 70 125 2.0 6.0 0.00 0.01 0.01 60 1008.3
20260509232510 70 124 2.0 5.0 0.00 0.01 0.01 61 1008.3
20260509232010 70 111 1.0 5.0 0.00 0.01 0.01 61 1008.2
20260509231527 71 91 1.0 4.0 0.00 0.01 0.01 62 1008.2
20260509231009 71 50 1.0 5.0 0.00 0.01 0.01 61 1008.2
20260509230506 72 58 0.0 5.0 0.00 0.01 0.01 60 1008.2
20260509230012 73 61 2.0 5.0 0.00 0.01 0.01 58 1008.2
20260509225504 73 46 2.0 4.0 0.00 0.01 0.01 55 1008.2
20260509225005 74 342 0.0 0.0 0.00 0.01 0.01 51 1008.2
20260509224519 74 329 0.0 2.0 0.00 0.01 0.01 52 1008.1
20260509224007 74 237 0.0 4.0 0.00 0.01 0.01 52 1008.1
20260509223511 74 226 0.0 4.0 0.00 0.01 0.01 51 1008.2
20260509223026 75 123 1.0 4.0 0.00 0.01 0.01 50 1008.2
20260509222509 75 227 1.0 4.0 0.00 0.01 0.01 49 1008.3
20260509222009 75 163 0.0 4.0 0.00 0.01 0.01 50 1008.3
20260509221532 75 268 0.0 7.0 0.00 0.01 0.01 47 1008.2
20260509221010 76 205 0.0 7.0 0.00 0.01 0.01 47 1008.2
20260509220508 76 212 1.0 8.0 0.00 0.01 0.01 47 1008.3
20260509220025 76 246 1.0 8.0 0.00 0.01 0.01 47 1008.3
20260509215514 76 257 3.0 8.0 0.00 0.01 0.01 47 1008.2
20260509215006 76 306 2.0 7.0 0.00 0.01 0.01 47 1008.2
20260509214518 75 277 2.0 7.0 0.00 0.01 0.01 48 1008.2
20260509214007 76 262 1.0 7.0 0.00 0.01 0.01 50 1008.2
20260509213508 76 255 1.0 7.0 0.00 0.01 0.01 51 1008.2
20260509213020 76 139 2.0 9.0 0.00 0.01 0.01 47 1008.2
20260509212508 76 48 1.0 9.0 0.00 0.01 0.01 47 1008.2
20260509212006 76 321 2.0 7.0 0.00 0.01 0.01 46 1008.1
20260509211548 76 294 4.0 7.0 0.00 0.01 0.01 47 1008.2
20260509211010 76 130 3.0 6.0 0.00 0.01 0.01 46 1008.1
20260509210508 76 186 2.0 6.0 0.00 0.01 0.01 47 1008.1
20260509210026 75 296 2.0 9.0 0.00 0.01 0.01 47 1008.0
20260509205507 75 229 2.0 9.0 0.00 0.01 0.01 49 1008.0
20260509205014 75 273 2.0 8.0 0.00 0.01 0.01 50 1008.0
20260509204503 74 182 4.0 8.0 0.00 0.01 0.01 50 1008.0
20260509204003 74 286 1.0 9.0 0.00 0.01 0.01 54 1008.0
20260509203502 73 209 1.0 14.0 0.00 0.01 0.01 53 1008.0
20260509203006 73 213 6.0 14.0 0.00 0.01 0.01 52 1008.0
20260509202502 73 196 3.0 6.0 0.00 0.01 0.01 53 1008.1
20260509202004 73 290 0.0 10.0 0.00 0.01 0.01 59 1008.2
20260509201506 72 234 4.0 10.0 0.00 0.01 0.01 59 1008.4
20260509201003 72 158 0.0 0.0 0.00 0.01 0.01 58 1008.4
20260509200506 72 296 0.0 0.0 0.00 0.01 0.01 59 1008.4
20260509200011 71 250 0.0 0.0 0.00 0.01 0.01 61 1008.5
20260509195505 70 314 0.0 0.0 0.00 0.01 0.01 65 1008.6
20260509195004 70 301 0.0 0.0 0.00 0.01 0.01 67 1008.7
20260509194514 69 304 0.0 0.0 0.00 0.01 0.01 64 1008.8
20260509194002 69 332 0.0 1.0 0.00 0.01 0.01 63 1008.9
20260509193502 69 333 0.0 2.0 0.00 0.01 0.01 65 1009.0
20260509193003 68 266 1.0 2.0 0.00 0.01 0.01 65 1008.9
20260509192502 68 304 0.0 4.0 0.00 0.01 0.01 68 1008.9
20260509192002 68 216 1.0 4.0 0.01 0.01 0.01 69 1008.8
20260509191504 67 296 1.0 5.0 0.01 0.01 0.01 71 1008.8
20260509191003 67 209 1.0 5.0 0.01 0.01 0.01 74 1008.7